When you browse on this site, cookies collect data to enhance your experience and personalize the content and advertising you see.
Visit our Privacy Policy to learn more. By continuing to use the site, you agree to this use of cookies and data.
  • In Lithuania
  • List of Countries
  • For 7 days
  • Water Temperature
  • Satellite Maps
  • Weather Map
  • Weather Widgets
  • user-avatar
    Login

    Hourly Weather Poroze

    Today, 22 February, Friday

    Time Temperature Precipitation Wind Pressure Humidity
    00:00 +5°C° 0.6 mm 5 mps 751 mmHg 94%
    01:00 +4°C° 0 mm 4 mps 751 mmHg 94%
    02:00 +2°C° 0.3 mm 5 mps 752 mmHg 90%
    03:00 -1°C° 0.3 mm 6 mps 752 mmHg 86%
    04:00 -3°C° 0.3 mm 7 mps 753 mmHg 83%
    05:00 -3°C° 0 mm 7 mps 754 mmHg 77%
    06:00 -4°C° 0 mm 7 mps 756 mmHg 72%
    07:00 -6°C° 0 mm 7 mps 757 mmHg 67%
    08:00 -4°C° 0 mm 7 mps 759 mmHg 61%
    09:00 -4°C° 0 mm 7 mps 760 mmHg 55%
    10:00 -4°C° 0 mm 7 mps 761 mmHg 49%
    11:00 -4°C° 0 mm 6 mps 762 mmHg 47%
    12:00 -3°C° 0 mm 6 mps 762 mmHg 44%
    13:00 -3°C° 0 mm 6 mps 763 mmHg 41%
    14:00 -2°C° 0 mm 5 mps 763 mmHg 42%
    15:00 -4°C° 0 mm 5 mps 764 mmHg 42%
    16:00 -4°C° 0 mm 5 mps 764 mmHg 43%
    17:00 -4°C° 0 mm 5 mps 765 mmHg 45%
    18:00 -4°C° 0 mm 4 mps 766 mmHg 47%
    19:00 -4°C° 0 mm 4 mps 766 mmHg 49%
    20:00 -4°C° 0 mm 4 mps 767 mmHg 47%
    21:00 -5°C° 0 mm 4 mps 767 mmHg 45%
    22:00 -5°C° 0 mm 4 mps 768 mmHg 43%
    23:00 -5°C° 0 mm 4 mps 768 mmHg 41%

    Tomorrow, 23 February, Saturday

    Time Temperature Precipitation Wind Pressure Humidity
    00:00 -5°C° 0 mm 3 mps 768 mmHg 40%
    01:00 -5°C° 0 mm 3 mps 769 mmHg 39%
    02:00 -5°C° 0 mm 3 mps 769 mmHg 39%
    03:00 -4°C° 0 mm 2 mps 769 mmHg 39%
    04:00 -4°C° 0 mm 2 mps 769 mmHg 39%
    05:00 -4°C° 0 mm 2 mps 769 mmHg 40%
    06:00 -4°C° 0 mm 2 mps 769 mmHg 41%
    07:00 -2°C° 0 mm 1 mps 769 mmHg 41%
    08:00 -2°C° 0 mm 1 mps 769 mmHg 38%
    09:00 -1°C° 0 mm 1 mps 769 mmHg 35%
    10:00 -1°C° 0 mm 1 mps 769 mmHg 32%
    11:00 0°C° 0 mm 1 mps 769 mmHg 30%
    12:00 +1°C° 0 mm 1 mps 769 mmHg 28%
    13:00 +1°C° 0 mm 1 mps 769 mmHg 25%
    14:00 0°C° 0 mm 0 mps 768 mmHg 26%
    15:00 0°C° 0 mm 0 mps 768 mmHg 27%
    16:00 +1°C° 0 mm 0 mps 768 mmHg 28%
    17:00 0°C° 0 mm 0 mps 767 mmHg 31%
    18:00 0°C° 0 mm 1 mps 767 mmHg 33%
    19:00 0°C° 0 mm 1 mps 767 mmHg 35%
    20:00 0°C° 0 mm 1 mps 767 mmHg 36%
    21:00 -2°C° 0 mm 2 mps 767 mmHg 36%
    22:00 -2°C° 0 mm 2 mps 767 mmHg 37%
    23:00 -2°C° 0 mm 2 mps 767 mmHg 37%

    Day after tomorrow, 24 February, Sunday

    Time Temperature Precipitation Wind Pressure Humidity
    00:00 -2°C° 0 mm 2 mps 766 mmHg 38%
    01:00 -2°C° 0 mm 3 mps 766 mmHg 38%
    02:00 -2°C° 0 mm 3 mps 766 mmHg 38%
    03:00 -2°C° 0 mm 2 mps 766 mmHg 39%
    04:00 -2°C° 0 mm 2 mps 765 mmHg 39%
    05:00 -2°C° 0 mm 2 mps 765 mmHg 39%
    06:00 -2°C° 0 mm 2 mps 765 mmHg 40%
    07:00 -2°C° 0 mm 2 mps 765 mmHg 41%
    08:00 -1°C° 0 mm 2 mps 765 mmHg 38%
    09:00 0°C° 0 mm 3 mps 765 mmHg 36%
    10:00 +1°C° 0 mm 3 mps 765 mmHg 33%
    11:00 +2°C° 0 mm 3 mps 765 mmHg 33%
    12:00 +3°C° 0 mm 3 mps 765 mmHg 33%
    13:00 +4°C° 0 mm 4 mps 765 mmHg 33%
    14:00 +4°C° 0 mm 3 mps 765 mmHg 38%
    15:00 +4°C° 0 mm 3 mps 764 mmHg 42%
    16:00 +4°C° 0 mm 2 mps 764 mmHg 47%
    17:00 +4°C° 0 mm 2 mps 764 mmHg 50%
    18:00 +3°C° 0 mm 2 mps 764 mmHg 53%
    19:00 +1°C° 0 mm 3 mps 764 mmHg 56%
    20:00 +1°C° 0 mm 3 mps 764 mmHg 58%
    21:00 0°C° 0 mm 3 mps 765 mmHg 60%
    22:00 0°C° 0 mm 3 mps 765 mmHg 62%
    23:00 0°C° 0 mm 3 mps 765 mmHg 63%

    25 February, Monday

    Time Temperature Precipitation Wind Pressure Humidity
    00:00 0°C° 0 mm 3 mps 765 mmHg 65%
    01:00 0°C° 0 mm 3 mps 765 mmHg 66%
    02:00 0°C° 0 mm 3 mps 764 mmHg 67%
    03:00 -1°C° 0 mm 3 mps 764 mmHg 68%
    04:00 -2°C° 0 mm 4 mps 764 mmHg 68%
    05:00 -1°C° 0 mm 3 mps 764 mmHg 70%
    06:00 -1°C° 0 mm 3 mps 764 mmHg 72%
    07:00 -1°C° 0 mm 3 mps 764 mmHg 74%
    08:00 +1°C° 0 mm 3 mps 764 mmHg 72%
    09:00 +2°C° 0 mm 3 mps 764 mmHg 71%
    10:00 +3°C° 0 mm 3 mps 765 mmHg 69%
    11:00 +4°C° 0 mm 3 mps 764 mmHg 69%
    12:00 +5°C° 0 mm 3 mps 764 mmHg 69%
    13:00 +7°C° 0 mm 3 mps 764 mmHg 69%
    14:00 +8°C° 0 mm 3 mps 764 mmHg 70%
    15:00 +8°C° 0 mm 3 mps 764 mmHg 71%
    16:00 +8°C° 0 mm 2 mps 764 mmHg 72%
    17:00 +7°C° 0 mm 2 mps 764 mmHg 77%
    18:00 +6°C° 0 mm 2 mps 764 mmHg 82%
    19:00 +5°C° 0 mm 2 mps 764 mmHg 87%
    20:00 +4°C° 0 mm 2 mps 763 mmHg 87%
    21:00 +3°C° 0 mm 3 mps 763 mmHg 88%
    22:00 +3°C° 0 mm 3 mps 762 mmHg 88%
    23:00 +2°C° 0 mm 3 mps 762 mmHg 86%

    26 February, Tuesday

    Time Temperature Precipitation Wind Pressure Humidity
    00:00 +2°C° 0 mm 3 mps 761 mmHg 83%
    01:00 +1°C° 0 mm 4 mps 761 mmHg 81%
    02:00 +1°C° 0 mm 4 mps 760 mmHg 80%
    03:00 +1°C° 0 mm 5 mps 760 mmHg 79%
    04:00 +1°C° 0 mm 5 mps 759 mmHg 79%
    05:00 +1°C° 0 mm 5 mps 759 mmHg 79%
    06:00 +1°C° 0 mm 5 mps 759 mmHg 80%
    07:00 0°C° 0 mm 5 mps 758 mmHg 81%
    08:00 +1°C° 0 mm 5 mps 758 mmHg 76%
    09:00 +2°C° 0 mm 6 mps 758 mmHg 72%
    10:00 +3°C° 0 mm 6 mps 758 mmHg 68%
    11:00 +5°C° 0 mm 5 mps 758 mmHg 69%
    12:00 +5°C° 0 mm 5 mps 758 mmHg 70%
    13:00 +5°C° 0 mm 5 mps 758 mmHg 71%
    14:00 +6°C° 0 mm 5 mps 758 mmHg 68%
    15:00 +7°C° 0 mm 5 mps 758 mmHg 65%
    16:00 +8°C° 0 mm 5 mps 758 mmHg 62%
    17:00 +6°C° 0 mm 4 mps 758 mmHg 64%
    18:00 +5°C° 0 mm 4 mps 758 mmHg 66%
    19:00 +4°C° 0 mm 4 mps 759 mmHg 68%
    20:00 +3°C° 0 mm 4 mps 759 mmHg 69%
    21:00 +3°C° 0 mm 4 mps 759 mmHg 69%
    22:00 +1°C° 0 mm 4 mps 759 mmHg 70%
    23:00 +1°C° 0 mm 4 mps 759 mmHg 73%

    27 February, Wednesday

    Time Temperature Precipitation Wind Pressure Humidity
    00:00 0°C° 0 mm 4 mps 759 mmHg 76%
    01:00 +1°C° 0 mm 3 mps 759 mmHg 78%
    02:00 0°C° 0 mm 3 mps 759 mmHg 80%
    03:00 0°C° 0 mm 3 mps 759 mmHg 82%
    04:00 -1°C° 0 mm 2 mps 759 mmHg 84%
    05:00 -1°C° 0 mm 2 mps 759 mmHg 84%
    06:00 -1°C° 0 mm 2 mps 759 mmHg 83%
    07:00 -1°C° 0 mm 2 mps 759 mmHg 82%
    08:00 +2°C° 0 mm 2 mps 759 mmHg 75%
    09:00 +3°C° 0 mm 2 mps 759 mmHg 67%
    10:00 +5°C° 0 mm 2 mps 759 mmHg 60%
    11:00 +6°C° 0 mm 2 mps 758 mmHg 55%
    12:00 +7°C° 0 mm 3 mps 758 mmHg 50%
    13:00 +9°C° 0 mm 3 mps 757 mmHg 46%
    14:00 +9°C° 0 mm 3 mps 756 mmHg 46%
    15:00 +8°C° 0 mm 4 mps 755 mmHg 47%
    16:00 +8°C° 0 mm 4 mps 755 mmHg 48%
    17:00 +7°C° 0 mm 4 mps 754 mmHg 52%
    18:00 +6°C° 0 mm 4 mps 754 mmHg 56%
    19:00 +5°C° 0 mm 4 mps 753 mmHg 60%
    20:00 +5°C° 0 mm 4 mps 752 mmHg 64%
    21:00 +5°C° 0 mm 5 mps 751 mmHg 67%
    22:00 +5°C° 0 mm 5 mps 751 mmHg 71%
    23:00 +5°C° 0 mm 5 mps 750 mmHg 77%
    Show more